Tracking 23099 objects as of 13-May-2021
HD Live streaming from Space Station
objects crossing your sky now

CZ-6 R/B

Track CZ-6 R/B now!
10-day predictions


NORAD ID: 44784
Int'l Code: 2019-076F
Perigee: 777.5 km
Apogee: 904.7 km
Inclination: 45.0 °
Period: 101.6 minutes
Semi major axis: 7212 km
RCS: Unknown
Launch date: November 13, 2019
Source: People's Republic of China (PRC)
Launch site: Taiyaun Space Center, China (TSC)

Note: This is a ROCKET BODY
aabbcc
Your satellite tracking list
Your tracking list is empty




NASA's NSSDC Master Catalog

Two Line Element Set (TLE):
1 44784U 19076F   21133.47775862 -.00000288  00000-0 -71984-4 0  9999
2 44784  45.0051 146.4338 0088140 139.6163 221.1264 14.17463238 77644
Source of the keplerian elements: AFSPC